Orbital Elements at Epoch 2459200.5 (2020-Dec-17.0) TDB
Reference: JPL 17 (heliocentric ecliptic J2000)
Element | Value | Uncertainty (1-sigma) | Units |
e | .1303687215354875 | 4.6252e-08 | |
a | 2.377708734979253 | 1.0357e-08 | au |
q | 2.067729887016247 | 1.0916e-07 | au |
i | 1.177424358879424 | 5.1613e-06 | deg |
node | 166.1990972905406 | 0.0001848 | deg |
peri | 29.14326286573571 | 0.00018545 | deg |
M | 269.9198699986917 | 1.6963e-05 | deg |
tp | 2459535.591113192880 (2021-Nov-17.09111319) | 6.4099e-05 | TDB |
period | 1339.17214315393 3.67 | 8.7497e-06 2.396e-08 | d yr |
n | .268822796113539 | 1.7564e-09 | deg/d |
Q | 2.687687582942259 | 1.1707e-08 | au |
|
| | Orbit Determination Parameters
Additional Information
|